FIREBIRD 4

Last updated on Dec. 9, 2021, 12:03 a.m. UTC

1 40378U 15003C   21342.46812335  .00004028  00000+0  14189-3 0  9994
2 40378  99.1138 160.7994 0112217 309.1985  49.9323 15.24329073379285
UTC
Height (km)
Latitude
Longitude
Inclination
Orbital Period
UTC large
Height (km)
Speed (km/s)
/
Latitude / Longitude
Inclination (degrees)
Orbital Period (minutes)
Azimuth
Elevation
Range (km)
Doppler Factor
iOS Compass Heading
iOS Angle